Time,TemperatureF,DewpointF,PressureIn,WindDirection,WindDirectionDegrees,WindSpeedMPH,WindSpeedGustMPH,Humidity,HourlyPrecipIn,Conditions,Clouds,dailyrainin,SolarRadiationWatts/m^2,SoftwareType,DateUTC
2013-10-31 00:02:00,47.0,47.0,-100.00,SSW,200,4.0,10.0,100,0.00,,,0.08,0.000000,,2013-10-31 05:02:00,
2013-10-31 00:43:00,47.0,47.0,-100.00,SSW,200,4.0,10.0,100,0.00,,,0.08,0.000000,,2013-10-31 05:43:00,
2013-10-31 00:52:00,47.0,47.0,-100.00,SSW,200,4.0,10.0,100,0.00,,,0.08,0.000000,,2013-10-31 05:52:00,
2013-10-31 01:42:00,47.0,47.0,-100.00,SSW,199,3.0,10.0,100,0.00,,,0.08,0.000000,,2013-10-31 06:42:00,
2013-10-31 01:53:00,47.0,47.0,-100.00,SSW,199,3.0,10.0,100,0.00,,,0.08,0.000000,,2013-10-31 06:53:00,
2013-10-31 02:01:00,47.0,47.0,-100.00,SSW,199,3.0,10.0,100,0.00,,,0.08,0.000000,,2013-10-31 07:01:00,
2013-10-31 02:02:00,47.0,47.0,-100.00,South,187,2.0,7.0,100,0.01,,,-99.99,0.000000,,2013-10-31 07:02:00,
2013-10-31 02:42:00,47.0,47.0,-100.00,South,187,2.0,7.0,100,0.01,,,-99.99,0.000000,,2013-10-31 07:42:00,
2013-10-31 02:52:00,47.0,47.0,-100.00,South,187,2.0,7.0,100,0.01,,,-99.99,0.000000,,2013-10-31 07:52:00,
2013-10-31 03:22:00,47.0,47.0,-100.00,South,186,2.0,6.0,100,0.00,,,0.09,0.000000,,2013-10-31 08:22:00,
2013-10-31 03:32:00,47.0,47.0,-100.00,South,186,2.0,6.0,100,0.00,,,0.09,0.000000,,2013-10-31 08:32:00,
2013-10-31 03:42:00,47.0,47.0,-100.00,South,186,2.0,6.0,100,0.00,,,0.09,0.000000,,2013-10-31 08:42:00,
2013-10-31 03:52:00,47.0,47.0,-100.00,South,186,2.0,6.0,100,0.00,,,0.09,0.000000,,2013-10-31 08:52:00,
2013-10-31 04:01:00,47.0,47.0,-100.00,South,186,2.0,6.0,100,0.00,,,0.09,0.000000,,2013-10-31 09:01:00,
2013-10-31 04:02:00,47.0,47.0,-100.00,WSW,252,1.0,8.0,100,0.00,,,0.09,0.000000,,2013-10-31 09:02:00,
2013-10-31 04:22:00,47.0,47.0,-100.00,WSW,252,1.0,8.0,100,0.00,,,0.09,0.000000,,2013-10-31 09:22:00,
2013-10-31 04:34:00,47.0,47.0,-100.00,WSW,252,1.0,8.0,100,0.00,,,0.09,0.000000,,2013-10-31 09:34:00,
2013-10-31 04:43:00,47.0,47.0,-100.00,WSW,252,1.0,8.0,100,0.00,,,0.09,0.000000,,2013-10-31 09:43:00,
2013-10-31 04:53:00,47.0,47.0,-100.00,WSW,252,1.0,8.0,100,0.00,,,0.09,0.000000,,2013-10-31 09:53:00,
2013-10-31 05:02:00,47.0,47.0,-100.00,SSE,163,2.0,4.0,100,0.00,,,0.09,0.000000,,2013-10-31 10:02:00,
2013-10-31 05:42:00,47.0,47.0,-100.00,SSE,163,2.0,4.0,100,0.00,,,0.09,0.000000,,2013-10-31 10:42:00,
2013-10-31 05:53:00,47.0,47.0,-100.00,SSE,163,2.0,4.0,100,0.00,,,0.09,0.000000,,2013-10-31 10:53:00,
2013-10-31 06:42:00,47.0,47.0,-100.00,South,184,3.0,6.0,100,0.00,,,0.06,0.000000,,2013-10-31 11:42:00,
2013-10-31 06:52:00,47.0,47.0,-100.00,South,184,3.0,6.0,100,0.00,,,0.06,0.000000,,2013-10-31 11:52:00,
2013-10-31 07:01:00,47.0,47.0,-100.00,South,184,3.0,6.0,100,0.00,,,0.06,0.000000,,2013-10-31 12:01:00,
2013-10-31 07:42:00,48.0,48.0,-100.00,SSW,208,0.0,6.0,100,0.00,,,0.05,0.000000,,2013-10-31 12:42:00,
2013-10-31 07:52:00,48.0,48.0,-100.00,SSW,208,0.0,6.0,100,0.00,,,0.05,0.000000,,2013-10-31 12:52:00,
2013-10-31 08:01:00,48.0,48.0,-100.00,SSW,208,0.0,6.0,100,0.00,,,0.05,0.000000,,2013-10-31 13:01:00,
2013-10-31 08:02:00,48.0,48.0,-100.00,East,101,0.0,4.0,100,0.13,,,0.17,1.000000,,2013-10-31 13:02:00,
2013-10-31 08:42:00,48.0,48.0,-100.00,East,101,0.0,4.0,100,0.13,,,0.17,1.000000,,2013-10-31 13:42:00,
2013-10-31 08:52:00,48.0,48.0,-100.00,East,101,0.0,4.0,100,0.13,,,0.17,1.000000,,2013-10-31 13:52:00,
2013-10-31 09:02:00,49.0,49.0,-100.00,East,97,0.0,3.0,100,0.03,,,0.20,16.000000,,2013-10-31 14:02:00,
2013-10-31 09:42:00,49.0,49.0,-100.00,East,97,0.0,3.0,100,0.03,,,0.20,16.000000,,2013-10-31 14:42:00,
2013-10-31 09:52:00,49.0,49.0,-100.00,East,97,0.0,3.0,100,0.03,,,0.20,16.000000,,2013-10-31 14:52:00,
2013-10-31 11:02:00,48.0,48.0,-100.00,NE,47,2.0,4.0,100,-99.99,,,-99.99,39.000000,,2013-10-31 16:02:00,
2013-10-31 11:23:00,48.0,48.0,-100.00,NE,47,2.0,4.0,100,-99.99,,,-99.99,39.000000,,2013-10-31 16:23:00,
2013-10-31 11:33:00,48.0,48.0,-100.00,NE,47,2.0,4.0,100,-99.99,,,-99.99,39.000000,,2013-10-31 16:33:00,
2013-10-31 11:43:00,48.0,48.0,-100.00,NE,47,2.0,4.0,100,-99.99,,,-99.99,39.000000,,2013-10-31 16:43:00,
2013-10-31 11:53:00,48.0,48.0,-100.00,NE,47,2.0,4.0,100,-99.99,,,-99.99,39.000000,,2013-10-31 16:53:00,
2013-10-31 12:02:00,49.0,49.0,-100.00,ENE,62,2.0,3.0,100,0.02,,,-99.99,44.000000,,2013-10-31 17:02:00,
2013-10-31 12:43:00,49.0,49.0,-100.00,ENE,62,2.0,3.0,100,0.02,,,-99.99,44.000000,,2013-10-31 17:43:00,
2013-10-31 12:52:00,49.0,49.0,-100.00,ENE,62,2.0,3.0,100,0.02,,,-99.99,44.000000,,2013-10-31 17:52:00,
2013-10-31 13:42:00,51.0,51.0,-100.00,ENE,78,2.0,5.0,100,0.00,,,-99.99,127.000000,,2013-10-31 18:42:00,
2013-10-31 13:52:00,51.0,51.0,-100.00,ENE,78,2.0,5.0,100,0.00,,,-99.99,127.000000,,2013-10-31 18:52:00,
2013-10-31 14:01:00,51.0,51.0,-100.00,ENE,78,2.0,5.0,100,0.00,,,-99.99,127.000000,,2013-10-31 19:01:00,
2013-10-31 14:02:00,51.0,51.0,-100.00,SE,139,1.0,3.0,99,0.00,,,-99.99,119.000000,,2013-10-31 19:02:00,
2013-10-31 14:22:00,51.0,51.0,-100.00,SE,139,1.0,3.0,99,0.00,,,-99.99,119.000000,,2013-10-31 19:22:00,
2013-10-31 14:32:00,51.0,51.0,-100.00,SE,139,1.0,3.0,99,0.00,,,-99.99,119.000000,,2013-10-31 19:32:00,
2013-10-31 14:42:00,51.0,51.0,-100.00,SE,139,1.0,3.0,99,0.00,,,-99.99,119.000000,,2013-10-31 19:42:00,
2013-10-31 14:52:00,51.0,51.0,-100.00,SE,139,1.0,3.0,99,0.00,,,-99.99,119.000000,,2013-10-31 19:52:00,
2013-10-31 15:02:00,52.0,52.0,-100.00,NNE,25,0.0,3.0,99,0.00,,,-99.99,58.000000,,2013-10-31 20:02:00,
2013-10-31 15:22:00,52.0,52.0,-100.00,NNE,25,0.0,3.0,99,0.00,,,-99.99,58.000000,,2013-10-31 20:22:00,
2013-10-31 15:32:00,52.0,52.0,-100.00,NNE,25,0.0,3.0,99,0.00,,,-99.99,58.000000,,2013-10-31 20:32:00,
2013-10-31 15:42:00,52.0,52.0,-100.00,NNE,25,0.0,3.0,99,0.00,,,-99.99,58.000000,,2013-10-31 20:42:00,
2013-10-31 15:52:00,52.0,52.0,-100.00,NNE,25,0.0,3.0,99,0.00,,,-99.99,58.000000,,2013-10-31 20:52:00,
2013-10-31 16:02:00,51.0,51.0,-100.00,West,265,0.0,5.0,99,0.00,,,-99.99,36.000000,,2013-10-31 21:02:00,
2013-10-31 16:22:00,51.0,51.0,-100.00,West,265,0.0,5.0,99,0.00,,,-99.99,36.000000,,2013-10-31 21:22:00,
2013-10-31 16:33:00,51.0,51.0,-100.00,West,265,0.0,5.0,99,0.00,,,-99.99,36.000000,,2013-10-31 21:33:00,
2013-10-31 16:44:00,51.0,51.0,-100.00,West,265,0.0,5.0,99,0.00,,,-99.99,36.000000,,2013-10-31 21:44:00,
2013-10-31 16:54:00,51.0,51.0,-100.00,West,265,0.0,5.0,99,0.00,,,-99.99,36.000000,,2013-10-31 21:54:00,
2013-10-31 17:02:00,50.0,50.0,-100.00,North,3,2.0,5.0,100,0.00,,,-99.99,19.000000,,2013-10-31 22:02:00,
2013-10-31 17:24:00,50.0,50.0,-100.00,North,3,2.0,5.0,100,0.00,,,-99.99,19.000000,,2013-10-31 22:24:00,
2013-10-31 17:34:00,50.0,50.0,-100.00,North,3,2.0,5.0,100,0.00,,,-99.99,19.000000,,2013-10-31 22:34:00,
2013-10-31 17:43:00,50.0,50.0,-100.00,North,3,2.0,5.0,100,0.00,,,-99.99,19.000000,,2013-10-31 22:43:00,
2013-10-31 17:53:00,50.0,50.0,-100.00,North,3,2.0,5.0,100,0.00,,,-99.99,19.000000,,2013-10-31 22:53:00,
2013-10-31 18:43:00,50.0,50.0,-100.00,NW,325,2.0,5.0,100,0.01,,,-99.99,2.000000,,2013-10-31 23:43:00,
2013-10-31 18:54:00,50.0,50.0,-100.00,NW,325,2.0,5.0,100,0.01,,,-99.99,2.000000,,2013-10-31 23:54:00,
2013-10-31 19:01:00,50.0,50.0,-100.00,NW,325,2.0,5.0,100,0.01,,,-99.99,2.000000,,2013-11-01 00:01:00,
2013-10-31 19:22:00,49.0,49.0,-100.00,NNW,336,4.0,9.0,100,0.01,,,-99.99,0.000000,,2013-11-01 00:22:00,
2013-10-31 19:32:00,49.0,49.0,-100.00,NNW,336,4.0,9.0,100,0.01,,,-99.99,0.000000,,2013-11-01 00:32:00,
2013-10-31 19:42:00,49.0,49.0,-100.00,NNW,336,4.0,9.0,100,0.01,,,-99.99,0.000000,,2013-11-01 00:42:00,
2013-10-31 19:52:00,49.0,49.0,-100.00,NNW,336,4.0,9.0,100,0.01,,,-99.99,0.000000,,2013-11-01 00:52:00,
2013-10-31 20:01:00,49.0,49.0,-100.00,NNW,336,4.0,9.0,100,0.01,,,-99.99,0.000000,,2013-11-01 01:01:00,
2013-10-31 20:02:00,47.0,47.0,-100.00,NNW,348,4.0,12.0,99,0.00,,,-99.99,0.000000,,2013-11-01 01:02:00,
2013-10-31 20:42:00,47.0,47.0,-100.00,NNW,348,4.0,12.0,99,0.00,,,-99.99,0.000000,,2013-11-01 01:42:00,
2013-10-31 20:52:00,47.0,47.0,-100.00,NNW,348,4.0,12.0,99,0.00,,,-99.99,0.000000,,2013-11-01 01:52:00,
2013-10-31 22:02:00,45.0,45.0,-100.00,NNW,344,4.0,10.0,99,-99.99,,,-99.99,0.000000,,2013-11-01 03:02:00,
2013-10-31 22:45:00,45.0,45.0,-100.00,NNW,344,4.0,10.0,99,-99.99,,,-99.99,0.000000,,2013-11-01 03:45:00,
2013-10-31 22:54:00,45.0,45.0,-100.00,NNW,344,4.0,10.0,99,-99.99,,,-99.99,0.000000,,2013-11-01 03:54:00,
2013-10-31 23:02:00,43.0,43.0,-100.00,NNW,337,7.0,15.0,99,0.00,,,-99.99,0.000000,,2013-11-01 04:02:00,
2013-10-31 23:44:00,43.0,43.0,-100.00,NNW,337,7.0,15.0,99,0.00,,,-99.99,0.000000,,2013-11-01 04:44:00,
2013-10-31 23:54:00,43.0,43.0,-100.00,NNW,337,7.0,15.0,99,0.00,,,-99.99,0.000000,,2013-11-01 04:54:00,